Theta_e
314 318 321 321 322 325 325 324 325 326 325 326 325 326 326 326 330 329 325 326 329 329 332 332 332 332 327 329 332 332 332 333 336 329 328 329 331 333 334 335 334 335 335
312 316 319 321 322 322 323 326 323 324 322 324 327 323 327 328 328 328 329 329 327 329 330 330 329 331 330 330 332 333 332 332 335 326 324 319 323 328 333 333 333 333 335
311 315 317 320 321 320 320 324 325 324 323 325 328 329 330 328 326 326 325 325 327 328 331 330 332 332 333 332 333 335 332 326 332 335 328 319 316 321 327 329 331 332 333
312 315 317 318 321 321 321 321 323 325 323 327 330 329 327 324 326 327 329 330 328 328 328 328 328 328 331 333 333 336 332 329 326 333 330 329 328 318 315 320 324 328 329
312 314 316 317 320 322 324 326 325 326 325 329 330 327 326 327 329 330 328 332 330 333 331 329 331 329 328 329 333 331 329 331 330 325 327 327 328 325 324 314 316 317 322
311 315 317 317 319 323 323 325 327 325 326 328 328 327 325 326 326 327 326 327 328 332 333 332 332 330 332 330 333 335 335 334 334 333 328 326 324 322 322 317 316 314 314
311 314 314 314 317 320 323 324 325 323 324 326 329 328 325 326 323 323 325 325 327 327 328 329 329 327 330 331 331 329 335 334 330 331 329 331 328 330 324 319 311 313 312
311 314 315 315 316 319 323 323 323 322 322 324 327 326 326 324 322 330 325 328 327 327 327 329 329 329 328 332 335 336 335 335 332 331 330 327 325 323 322 317 310 306 311
311 313 315 316 317 319 322 325 325 323 322 323 326 326 325 325 323 325 328 330 329 329 330 326 329 333 332 330 329 333 332 327 326 326 326 325 324 323 317 316 318 317 312
311 313 315 316 318 320 321 325 327 323 321 322 325 324 323 323 324 325 328 328 327 325 324 322 323 330 332 328 329 331 333 328 331 329 329 327 326 322 322 316 316 321 315
311 313 315 316 318 320 319 323 326 322 322 322 323 323 322 322 324 323 325 326 326 325 322 323 323 324 328 326 326 329 331 330 330 332 330 329 330 328 324 321 318 317 316
312 313 315 316 316 318 319 321 326 322 322 321 322 322 322 322 323 323 324 326 327 327 326 326 326 324 325 325 323 326 329 330 329 328 329 328 327 328 326 322 321 318 320
311 313 314 315 315 317 318 320 324 322 320 320 321 321 321 322 322 322 323 325 326 325 325 325 325 324 324 324 324 325 325 329 329 329 329 327 328 325 323 323 319 320 319
311 312 313 314 316 316 318 320 323 321 319 319 321 320 321 321 322 322 323 325 325 324 324 323 322 321 322 323 322 322 321 321 324 326 326 326 327 326 325 323 323 322 321
311 312 313 314 316 317 318 321 323 320 320 319 321 321 320 320 321 321 322 323 325 324 323 322 322 322 321 319 322 323 323 321 320 321 319 320 317 314 317 323 324 324 320
311 312 313 314 315 316 318 320 322 321 320 320 320 321 317 318 320 320 321 322 323 323 323 323 322 322 316 301 305 319 323 323 322 320 319 318 314 309 306 309 311 321 324
311 312 313 314 316 317 319 320 322 322 320 320 320 320 317 317 319 318 319 320 322 323 322 322 322 322 319 299 300 306 323 323 322 321 319 314 312 315 316 304 303 303 303
313 314 315 317 318 319 320 321 322 321 320 320 319 319 316 317 318 318 319 320 320 322 322 321 322 322 318 298 297 302 318 318 316 317 317 318 316 313 315 317 317 316 316
317 317 317 318 318 318 320 321 320 320 319 319 319 319 316 317 318 317 318 318 318 318 319 320 320 321 319 297 295 305 314 312 310 309 309 311 310 297 296 314 314 313 312
318 317 317 318 319 320 321 320 319 319 319 319 320 320 317 317 318 320 318 317 318 318 316 316 318 312 319 296 294 304 310 310 306 307 307 296 304 294 294 311 311 309 311
318 319 317 318 320 322 322 319 319 318 320 320 321 321 319 318 320 321 319 318 316 316 315 315 316 316 316 315 295 294 312 309 307 306 307 307 293 293 292 296 309 308 308
319 317 316 318 320 321 321 320 320 321 321 321 320 322 321 317 318 320 319 318 318 317 316 316 315 315 317 303 297 294 296 305 315 314 313 312 294 292 292 294 297 293 294
320 317 316 317 318 321 321 320 321 321 320 321 321 322 322 319 318 319 319 317 318 315 315 313 312 312 313 315 297 295 294 295 310 317 309 300 294 293 294 292 294 290 303
320 318 317 316 316 319 320 322 321 320 319 321 322 323 322 320 319 317 318 317 316 315 314 313 313 314 314 313 313 310 306 297 302 300 309 304 302 299 301 303 302 307 310
321 318 316 317 317 318 319 321 322 321 321 323 323 322 322 321 320 318 317 316 321 316 316 316 316 317 317 317 311 310 313 314 308 309 312 311 310 310 311 312 311 309 308
321 319 317 317 318 318 318 320 320 321 322 322 322 321 321 321 321 319 318 302 301 299 298 298 311 318 304 298 297 296 297 296 293 307 312 313 311 309 314 315 316 315 307
Wind_Speed
10 8 7 5 5 6 6 5 5 5 5 5 4 3 5 3 2 4 4 5 3 4 7 7 8 7 7 6 9 9 11 7 8 7 7 7 8 12 8 7 6 7 6
11 10 9 6 5 5 5 5 4 5 5 4 3 2 3 1 3 4 5 8 4 4 6 7 6 6 7 9 11 11 8 6 9 7 6 5 6 6 9 8 7 7 5
16 13 11 8 6 4 3 4 4 5 5 7 5 3 3 2 3 3 3 4 4 5 5 7 7 7 6 8 10 11 12 8 7 13 4 4 4 8 4 9 8 9 6
15 13 12 9 7 4 1 2 3 5 4 5 5 5 5 4 3 2 2 5 4 7 7 8 7 7 6 9 8 8 8 7 9 4 5 5 9 4 6 5 7 8 7
18 16 14 11 8 5 2 2 3 4 3 4 5 4 4 4 2 1 3 7 5 7 10 7 10 8 6 6 12 11 9 6 7 6 6 8 7 4 6 4 8 7 5
18 15 14 10 8 6 4 1 2 3 1 3 4 6 7 5 4 4 3 3 2 5 11 10 9 8 9 9 10 13 12 8 9 6 6 7 7 7 6 6 7 7 4
18 16 15 12 9 8 6 3 1 2 1 3 4 5 5 5 4 4 4 4 3 3 8 8 7 6 8 10 10 10 10 9 9 9 6 4 9 7 9 10 4 4 3
17 16 16 13 11 9 8 5 3 2 0 1 4 4 5 4 4 6 5 5 5 4 5 6 6 6 6 9 11 9 8 11 8 13 8 8 7 7 10 7 11 5 3
18 17 16 13 11 9 8 7 5 4 1 1 2 3 5 6 6 5 5 5 3 3 4 5 4 8 8 7 5 6 9 6 6 6 8 9 6 6 4 4 6 5 8
16 15 14 13 11 9 6 7 6 5 3 1 1 3 4 4 5 4 5 4 2 2 5 3 3 7 8 5 5 5 7 6 7 7 9 8 7 8 7 4 3 4 6
18 15 14 13 12 8 7 7 8 6 5 3 2 2 4 4 5 6 5 4 5 5 8 9 8 6 7 5 5 4 6 7 8 9 10 11 10 8 7 7 4 5 6
17 14 14 13 11 10 8 8 8 7 6 5 4 2 4 5 6 6 7 6 7 7 9 9 10 9 9 6 5 7 7 9 8 7 8 10 8 8 8 6 4 5 5
16 14 14 14 13 11 8 9 9 8 7 6 5 4 4 4 6 6 6 6 7 8 8 9 11 10 10 9 7 8 9 9 8 8 9 10 9 7 6 5 5 6 6
17 15 14 14 14 12 10 9 9 9 8 7 6 5 4 4 5 5 6 6 6 8 9 9 10 10 10 10 10 10 10 9 8 8 8 8 8 9 9 7 6 7 8
18 18 16 15 14 13 11 10 10 11 10 9 7 6 5 5 5 6 6 6 6 7 8 9 9 9 8 7 11 10 10 10 10 9 8 7 8 9 6 4 6 8 7
20 18 17 17 16 15 13 11 11 12 11 10 9 7 6 6 6 6 6 6 7 7 7 8 8 8 6 8 10 9 9 9 9 8 7 7 8 8 7 7 4 6 9
19 20 21 18 16 16 14 13 12 12 11 10 9 10 9 8 8 8 7 7 7 7 7 6 6 7 7 7 8 7 6 6 6 6 6 5 4 5 7 8 9 8 3
17 19 17 18 18 15 15 13 12 13 12 11 11 10 10 10 9 9 8 7 6 6 6 6 5 5 4 5 6 5 5 4 4 4 4 4 5 4 5 5 5 4 3
18 18 18 17 17 18 16 14 13 13 13 13 13 13 11 10 10 9 9 8 7 7 6 6 7 6 5 7 7 6 5 4 4 3 3 4 5 5 2 6 6 4 4
15 17 18 17 17 17 17 16 15 15 15 15 15 14 13 12 11 10 10 7 7 7 6 6 5 4 6 10 10 7 5 6 5 5 5 2 3 9 6 4 4 4 4
16 15 18 19 19 18 18 18 17 17 16 15 15 15 14 13 12 10 8 8 8 7 7 7 6 7 8 8 11 9 6 6 6 5 5 5 8 8 8 6 6 5 4
14 18 17 17 17 19 19 19 18 18 16 15 15 16 14 12 10 12 10 9 9 8 8 8 7 7 7 8 11 13 12 3 4 5 4 5 13 13 12 9 8 7 6
11 15 16 16 16 18 19 20 20 18 17 16 16 15 15 13 12 13 11 9 10 8 8 7 7 6 6 7 10 11 9 8 6 5 2 5 11 10 9 11 5 7 7
9 12 16 17 18 19 20 21 19 20 19 17 16 14 14 14 12 10 10 9 9 9 9 8 8 7 7 7 7 8 8 7 8 3 6 3 3 5 5 2 8 8 7
9 12 15 15 18 20 20 19 20 20 18 16 15 15 13 14 12 11 11 11 10 10 9 9 8 8 8 8 7 8 6 6 7 7 6 6 5 5 5 5 4 5 5
9 12 14 14 16 18 18 20 22 21 20 17 14 14 13 12 11 11 10 9 8 11 11 3 7 7 6 7 9 11 10 9 12 5 6 4 3 4 4 4 2 2 2
Wind_Direction
194 184 185 204 240 265 280 310 317 349 347 346 343 334 360 2 332 41 5 335 280 143 157 152 157 156 156 171 166 158 150 149 143 121 118 111 122 130 121 113 124 115 150
189 184 186 198 228 276 288 286 316 339 338 326 323 298 334 347 6 16 357 5 145 132 175 162 158 160 159 165 167 163 145 141 144 138 125 124 111 103 112 126 116 117 100
186 184 182 196 217 259 287 302 314 326 342 343 348 312 159 80 50 34 3 356 58 98 139 145 156 154 160 169 165 159 150 143 150 151 115 137 122 105 51 99 112 119 96
191 181 179 188 207 232 248 303 357 344 8 354 25 28 48 55 56 21 50 64 67 67 80 82 96 100 124 134 136 139 123 124 136 117 56 110 128 117 123 61 91 94 103
185 182 180 184 198 210 209 287 1 3 33 31 3 355 42 66 26 44 104 85 56 88 93 98 99 101 91 88 120 113 128 132 129 86 100 103 87 64 124 101 117 67 49
184 181 178 176 195 210 192 192 359 25 34 39 27 19 18 35 67 107 103 103 94 56 76 70 85 92 108 102 117 124 131 119 113 128 139 146 139 141 118 104 81 95 50
179 178 174 180 190 207 188 189 128 70 335 301 331 31 24 42 43 40 43 42 60 37 63 62 71 81 103 109 114 111 122 119 123 124 114 123 120 129 121 119 95 108 112
179 182 177 180 189 199 193 190 160 153 254 341 357 33 27 34 55 59 50 59 67 64 59 78 74 77 85 80 101 120 123 116 120 128 129 131 119 119 132 139 133 97 103
180 182 177 181 189 193 195 195 179 167 208 2 345 35 41 27 43 68 69 66 87 101 81 72 100 140 126 108 89 100 117 105 105 115 131 126 125 120 96 113 146 135 152
184 184 178 182 191 194 176 193 193 180 169 152 32 37 52 33 46 65 97 96 51 33 93 92 99 144 144 107 104 100 128 120 139 146 149 138 138 140 155 140 142 120 120
186 186 179 183 191 187 181 185 185 171 170 175 129 78 79 71 45 62 65 68 88 90 108 126 134 147 140 114 115 136 149 141 142 147 157 146 149 153 150 160 131 141 150
184 185 182 181 187 188 184 188 184 179 174 172 151 120 96 94 72 59 60 53 51 79 102 109 112 106 113 127 132 140 145 146 139 136 146 140 145 148 155 159 131 148 144
181 187 185 186 190 187 191 190 184 175 164 164 156 141 108 101 99 77 72 79 67 64 71 93 101 107 115 121 115 115 115 127 139 148 146 136 145 145 138 141 145 151 149
180 186 188 191 190 186 189 187 183 170 163 162 159 153 141 112 111 104 90 98 93 87 81 77 89 96 109 114 116 115 110 111 121 116 121 131 158 158 159 150 157 143 148
187 189 188 193 190 183 188 186 181 175 168 166 167 161 144 134 134 122 108 98 101 99 97 94 85 88 93 99 112 104 104 106 100 92 88 71 68 60 80 145 171 158 173
193 189 189 189 199 187 187 185 181 181 176 174 171 159 158 154 145 135 125 117 122 119 118 111 108 97 80 56 61 95 103 104 108 107 96 101 107 85 98 112 127 165 171
194 193 192 187 195 198 186 187 183 177 182 180 170 165 164 164 158 152 149 145 141 138 132 126 123 108 110 106 99 98 103 111 112 124 136 143 122 146 121 92 94 75 40
197 201 196 188 187 193 191 185 178 182 182 180 173 171 173 170 164 163 161 152 154 152 149 149 139 137 126 130 118 102 116 126 136 153 156 136 128 88 127 140 131 124 107
194 196 194 191 176 185 188 185 179 183 186 181 178 176 176 176 169 170 165 160 160 164 170 175 171 177 160 165 165 167 149 142 149 152 154 148 143 125 178 156 148 154 173
194 190 188 186 179 181 180 182 186 184 190 184 181 179 177 179 181 175 168 166 176 179 178 177 191 184 190 171 177 184 169 172 178 180 170 201 180 164 182 160 171 200 215
190 186 177 185 189 171 174 185 188 195 191 182 176 176 179 181 181 171 170 171 177 173 185 192 193 207 212 186 184 200 188 188 182 176 183 194 188 190 194 218 200 215 183
178 187 184 187 179 175 176 182 192 195 187 181 177 176 179 183 177 174 175 181 179 185 190 198 207 210 217 220 190 199 225 194 204 201 192 177 182 199 205 206 231 201 205
182 183 195 184 182 180 184 184 195 188 183 184 181 178 178 184 181 181 178 181 186 193 197 201 210 212 205 220 205 200 204 214 242 245 213 183 189 200 216 235 244 187 230
188 181 189 186 186 186 190 197 179 185 183 186 184 179 181 183 186 190 187 192 191 198 200 200 210 207 201 209 209 202 200 204 211 177 211 222 242 240 305 233 204 236 255
183 186 191 195 199 187 192 189 182 180 184 185 185 184 188 187 188 199 194 199 204 202 198 209 212 203 214 213 192 185 195 207 210 201 231 230 228 247 248 245 250 265 256
190 196 195 203 206 194 194 190 185 183 180 184 189 188 188 188 194 195 199 228 248 201 225 44 226 221 244 115 155 182 205 191 147 207 244 255 260 263 284 291 306 315 286